Regen radar Meer informatie rain snow radar


Bezoek ook deze websites:

Template documentation
and downloads

And another site



Select another period ( hide this area )

Eenheden Periode Custom range Directly to
Metrisch Engels Beide
Dagelijkse Wekelijkse Maandelijkse Jaarlijkse
use both date-selectors for a custom range
previous Dag
With this date

WeatherUnderground graphs for this period ( click here )


Dagelijkse Samenvatting Dinsdag 04 oktober 2022
Tijd Temp. ( °C ) Dew pt. ( °C ) Wind ( km/h ) van Windvlaag ( km/h ) Luchtdruk ( hPa ) Humid.( % ) Rainrate ( cm ) Zonneschijn ( W/m2 )
Hoog19,6 15,0 21,0 ZW ( 561/979 ) 24,0 1023,4 97 - 621
Gemiddeld11,8 10,3 5,2 ZW #58/188 8,4 1020,5 91 - 374 #92/188
Laag7,7 7,1 -   0,0 1018,0 75 -  
Dagelijkse Tabular details for Dinsdag 04 oktober 2022
Tijd Temp. ( °C ) Dew pt. ( °C ) Wind ( km/h ) van Windvlaag ( km/h ) Luchtdruk ( hPa ) Humid.( % ) Rainrate ( cm ) Zonneschijn ( W/m2 )
00:04 10,8 9,4   Kalm   1023,4 91 - -
00:09 10,7 9,3   Kalm 2,0 1023,4 91 - -
00:14 10,6 9,4 1,0 ZW 2,0 1023,4 92 - -
00:19 10,7 9,6 1,0 ZW 3,0 1023,4 93 - -
00:24 10,7 9,6 1,0 ZW 3,0 1023,4 93 - -
00:29 10,7 9,6 1,0 WZW 5,0 1023,4 93 - -
00:34 10,8 9,7 1,0 WZW 3,0 1023,4 93 - -
00:39 10,9 9,8 1,0 WZW 3,0 1023,4 93 - -
00:44 10,9 9,8   Kalm 3,0 1023,4 93 - -
00:49 10,9 9,8   Kalm 2,0 1023,4 93 - -
00:53 10,8 9,7 1,0 WZW 2,0 1023,4 93 - -
00:59 10,8 9,7   Kalm   1023,4 93 - -
01:04 10,7 9,6   Kalm 2,0 1023,4 93 - -
01:09 10,6 9,5 1,0 WZW 2,0 1023,4 93 - -
01:14 10,4 9,3 1,0 WZW 2,0 1023,4 93 - -
01:19 10,3 9,2   Kalm 2,0 1023,4 93 - -
01:24 10,3 9,4   Kalm   1023,0 94 - -
01:29 10,3 9,4   Kalm   1023,0 94 - -
01:34 10,3 9,4 1,0 WZW 3,0 1023,0 94 - -
01:39 10,2 9,3 3,0 ZW 3,0 1022,7 94 - -
01:44 10,1 9,2   Kalm 2,0 1022,7 94 - -
01:49 9,9 9,0 1,0 ZZW 2,0 1022,7 94 - -
01:54 9,9 9,0 1,0 ZZW 2,0 1022,7 94 - -
01:59 9,9 9,0 1,0 ZZW 2,0 1022,7 94 - -
02:04 9,8 8,9 1,0 ZZW 2,0 1022,7 94 - -
02:09 9,8 8,9   Kalm 2,0 1022,7 94 - -
02:14 9,7 8,8   Kalm 2,0 1022,7 94 - -
02:19 9,6 8,7   Kalm 2,0 1022,7 94 - -
02:24 9,6 8,7   Kalm   1022,7 94 - -
02:29 9,6 8,8   Kalm 2,0 1022,7 95 - -
02:34 9,6 8,8   Kalm 2,0 1022,7 95 - -
02:38 9,7 8,9 1,0 ZZW 2,0 1022,7 95 - -
02:44 9,8 9,0 1,0 ZZW 2,0 1022,7 95 - -
02:49 9,8 9,0   Kalm 2,0 1022,7 95 - -
02:54 9,8 9,0 1,0 ZZW 2,0 1022,4 95 - -
02:59 9,8 9,0 1,0 ZZW 2,0 1022,4 95 - -
03:04 9,6 8,8 1,0 ZZW 2,0 1022,4 95 - -
03:09 9,4 8,5 1,0 ZZW 2,0 1022,4 94 - -
03:14 9,3 8,4 1,0 ZZW 3,0 1022,0 95 - -
03:19 9,2 8,3   Kalm 3,0 1022,0 95 - -
03:24 9,1 8,3 1,0 ZZW 3,0 1022,0 95 - -
03:29 9,1 8,3 1,0 ZZW 3,0 1022,0 95 - -
03:34 9,1 8,3   Kalm 2,0 1022,0 95 - -
03:39 9,1 8,3   Kalm 2,0 1022,0 95 - -
03:44 9,1 8,3 1,0 ZZW 3,0 1022,0 95 - -
03:49 9,2 8,6 1,0 ZZW 3,0 1022,0 96 - -
03:54 9,3 8,7 1,0 ZZW 2,0 1021,7 96 - -
03:59 9,3 8,5 1,0 ZZW 3,0 1021,7 95 - -
04:04 9,3 8,5 1,0 ZZW 3,0 1021,7 95 - -
04:09 9,3 8,5 3,0 Zuiden 5,0 1021,7 95 - -
04:14 9,3 8,5 1,0 Zuiden 3,0 1021,7 95 - -
04:19 9,3 8,5   Kalm 2,0 1021,3 95 - -
04:24 9,2 8,4 1,0 Zuiden 3,0 1021,3 95 - -
04:29 9,2 8,4 1,0 Zuiden 3,0 1021,3 95 - -
04:34 9,1 8,3 1,0 Zuiden 3,0 1021,0 95 - -
04:39 9,0 8,2 1,0 Zuiden 3,0 1021,0 95 - -
04:44 8,9 8,1 3,0 Zuiden 5,0 1020,7 95 - -
04:49 8,9 8,1   Kalm 2,0 1021,0 95 - -
04:54 8,9 8,3 1,0 Zuiden 2,0 1020,7 96 - -
04:59 8,9 8,3   Kalm 2,0 1020,7 96 - -
05:04 8,8 8,2 1,0 Zuiden 3,0 1020,3 96 - -
05:09 8,8 8,2 1,0 Zuiden 3,0 1020,3 96 - -
05:14 8,9 8,3 1,0 Zuiden 3,0 1020,3 96 - -
05:19 8,9 8,3 1,0 Zuiden 2,0 1020,3 96 - -
05:24 9,0 8,4 5,0 Zuiden 5,0 1020,3 96 - -
05:29 9,0 8,4 3,0 ZZW 5,0 1020,3 96 - -
05:34 8,9 8,3   Kalm 3,0 1020,3 96 - -
05:39 8,9 8,3   Kalm 2,0 1020,3 96 - -
05:44 8,9 8,3 1,0 ZZW 2,0 1020,3 96 - -
05:49 8,9 8,3   Kalm 2,0 1020,0 96 - -
05:54 8,8 8,2 1,0 ZZW 2,0 1020,0 96 - -
05:59 8,8 8,1 1,0 ZZW 2,0 1020,0 96 - -
06:04 8,7 8,1 3,0 ZZW 3,0 1020,0 96 - -
06:09 8,6 8,0 1,0 ZZW 3,0 1020,0 96 - -
06:14 8,6 8,0   Kalm 3,0 1020,0 96 - -
06:19 8,7 8,1 5,0 ZW 5,0 1020,0 96 - -
06:24 8,8 8,2 3,0 ZW 5,0 1020,0 96 - -
06:29 8,8 8,2 3,0 ZW 3,0 1020,0 96 - -
06:34 8,9 8,3 5,0 WZW 5,0 1020,0 96 - -
06:39 8,9 8,3 3,0 WZW 5,0 1020,0 96 - -
06:44 8,9 8,3 1,0 WZW 5,0 1020,0 96 - -
06:48 8,9 8,3   Kalm 3,0 1020,0 96 - -
06:54 8,9 8,3   Kalm 2,0 1020,0 96 - -
06:59 8,8 8,2 1,0 WZW 2,0 1020,3 96 - -
07:04 8,7 8,1 1,0 WZW 2,0 1020,3 96 - -
07:09 8,7 8,1   Kalm 2,0 1020,3 96 - -
07:14 8,6 8,0   Kalm 2,0 1020,3 96 - -
07:19 8,4 7,8   Kalm 2,0 1020,0 96 - -
07:24 8,3 7,7   Kalm 2,0 1020,0 96 - -
07:29 8,2 7,6   Kalm 2,0 1020,0 96 - -
07:34 8,1 7,5   Kalm 2,0 1020,0 96 - -
07:39 8,1 7,5   Kalm 2,0 1020,0 96 - -
07:44 8,0 7,4   Kalm   1020,0 96 - -
07:49 7,9 7,3   Kalm 2,0 1020,0 96 - -
07:54 7,8 7,2 1,0 WZW 2,0 1020,0 96 - -
07:59 7,8 7,2   Kalm   1020,3 96 - -
08:04 7,8 7,2 1,0 WZW 2,0 1020,0 96 - 5
08:09 7,8 7,2 3,0 WZW 3,0 1020,0 96 - 7
08:14 7,8 7,2 1,0 WZW 3,0 1020,0 96 - 12
08:19 7,7 7,1   Kalm 2,0 1020,0 96 - 12
08:24 7,8 7,2 1,0 WZW 3,0 1020,0 96 - 14
08:29 7,9 7,4   Kalm 3,0 1020,0 97 - 30
08:34 7,9 7,3 1,0 ZW 5,0 1020,0 96 - 51
08:39 8,1 7,7 3,0 ZZW 5,0 1020,0 97 - 65
08:44 8,4 8,0 5,0 ZZW 5,0 1020,0 97 - 84
08:49 8,8 8,3 8,0 ZW 10,0 1020,0 97 - 105
08:54 9,2 8,7 6,0 ZW 11,0 1020,0 97 - 125
08:59 9,5 9,0 6,0 ZW 11,0 1019,6 97 - 149
09:04 9,7 9,2 5,0 ZZW 11,0 1019,6 97 - 169
09:09 9,9 9,4 5,0 ZW 8,0 1019,6 97 - 192
09:14 10,2 9,7 10,0 ZW 10,0 1020,0 97 - 214
09:19 10,4 9,9 6,0 ZZW 8,0 1019,6 97 - 234
09:24 10,5 10,0 6,0 ZZW 10,0 1019,6 97 - 158
09:29 10,6 10,1 5,0 ZW 10,0 1019,6 97 - 151
09:34 10,8 10,3 8,0 ZW 10,0 1019,6 97 - 267
09:39 10,9 10,4 8,0 WZW 10,0 1019,6 97 - 230
09:44 11,1 10,6 6,0 ZW 11,0 1019,6 97 - 183
09:49 11,3 10,8 10,0 ZZW 11,0 1019,6 97 - 306
09:54 11,6 11,1 5,0 ZZW 10,0 1019,6 97 - 330
09:59 11,7 11,2 5,0 WZW 13,0 1019,6 97 - 288
10:04 11,8 11,3 10,0 ZW 10,0 1019,6 97 - 304
10:09 12,1 11,5 5,0 ZW 11,0 1019,6 96 - 315
10:14 12,2 11,6 6,0 ZW 16,0 1019,6 96 - 281
10:19 12,3 11,5 8,0 ZW 15,0 1019,6 95 - 332
10:24 12,4 11,6 10,0 ZW 15,0 1019,6 95 - 357
10:29 12,6 11,7 10,0 ZW 16,0 1019,6 95 - 255
10:34 12,6 11,7 10,0 ZW 13,0 1019,6 94 - 274
10:39 12,7 11,6 8,0 ZZW 15,0 1019,6 93 - 355
10:44 12,8 11,5 11,0 ZZW 15,0 1019,6 92 - 364
10:49 12,9 11,6 14,0 WZW 19,0 1019,6 92 - 388
10:54 13,1 11,6 6,0 ZW 21,0 1019,6 91 - 415
10:59 13,5 12,0 13,0 ZW 16,0 1019,6 91 - 457
11:04 13,6 12,0 14,0 ZW 18,0 1019,6 90 - 466
11:09 13,8 12,0 11,0 ZW 18,0 1019,6 89 - 461
11:14 13,9 11,9 8,0 ZW 16,0 1019,6 88 - 445
11:19 14,1 12,1 14,0 ZW 18,0 1019,3 88 - 454
11:24 14,2 12,1 14,0 ZW 23,0 1019,6 87 - 410
11:29 14,3 12,2 11,0 WZW 16,0 1019,3 87 - 380
11:34 14,3 12,2 11,0 WZW 18,0 1019,3 87 - 411
11:39 14,3 12,0 20,0 ZW 19,0 1019,3 86 - 411
11:44 14,4 12,1 13,0 ZW 16,0 1019,0 86 - 485
11:49 14,5 12,2 13,0 ZW 19,0 1019,0 86 - 413
11:54 14,5 12,2 14,0 ZZW 19,0 1019,0 86 - 251
11:59 14,4 12,1 10,0 ZW 18,0 1019,3 86 - 408
12:04 14,7 12,4 14,0 ZW 16,0 1019,3 86 - 522
12:09 15,0 12,7 14,0 ZW 18,0 1019,3 86 - 598
12:14 15,3 12,8 16,0 ZW 18,0 1019,3 85 - 621
12:19 15,4 12,9 6,0 ZW 15,0 1019,3 85 - 301
12:24 15,7 13,1 14,0 ZW 18,0 1019,3 85 - 533
12:29 15,8 13,0 8,0 WZW 18,0 1019,3 84 - 473
12:34 15,8 12,9 10,0 ZW 16,0 1019,0 83 - 422
12:39 15,8 12,9 21,0 ZW 21,0 1019,0 83 - 480
12:44 15,9 12,9 18,0 ZW 21,0 1019,0 83 - 483
12:49 16,1 13,0 11,0 ZW 18,0 1019,3 82 - 485
12:54 16,2 13,1 11,0 ZW 16,0 1019,3 82 - 534
12:59 16,6 13,3 14,0 ZZW 16,0 1019,3 81 - 538
13:04 16,7 13,2 10,0 Zuiden 18,0 1019,3 80 - 534
13:09 16,9 13,4 10,0 ZW 18,0 1019,3 80 - 534
13:14 17,2 13,7 11,0 ZW 18,0 1019,3 80 - 557
13:19 17,3 13,7 8,0 ZZW 18,0 1019,3 80 - 566
13:24 17,5 13,8 10,0 ZW 19,0 1019,0 79 - 559
13:29 17,7 14,0 13,0 ZW 13,0 1019,3 79 - 541
13:34 17,9 14,0 11,0 ZZW 16,0 1019,3 78 - 534
13:39 18,1 14,2 14,0 ZZW 19,0 1019,3 78 - 522
13:44 18,1 14,0 11,0 ZZW 15,0 1019,3 77 - 515
13:49 18,1 14,0 10,0 ZZW 16,0 1019,3 77 - 510
13:54 18,2 14,3 8,0 ZW 11,0 1019,3 78 - 506
13:59 18,5 14,6 11,0 ZW 15,0 1019,3 78 - 499
14:04 18,5 14,4 11,0 ZW 23,0 1019,3 77 - 492
14:09 18,3 14,0 11,0 ZW 16,0 1019,0 76 - 501
14:14 18,3 14,4 11,0 ZW 15,0 1019,0 78 - 504
14:19 18,6 14,5 13,0 ZW 18,0 1019,0 77 - 503
14:24 18,6 14,3 8,0 ZZW 16,0 1019,0 76 - 476
14:29 18,5 14,2 14,0 ZW 18,0 1019,0 76 - 490
14:34 18,6 14,4 13,0 ZZW 13,0 1019,0 77 - 483
14:39 18,7 14,6 6,0 ZZW 15,0 1018,6 77 - 489
14:44 18,7 14,6 13,0 ZZW 23,0 1018,6 77 - 490
14:49 18,8 14,7 13,0 WZW 19,0 1018,6 77 - 452
14:54 18,8 14,5 11,0 WZW 19,0 1018,6 76 - 461
14:59 18,9 14,6 11,0 ZZW 16,0 1018,6 76 - 473
15:04 18,9 14,8 14,0 WZW 18,0 1018,3 77 - 485
15:09 19,1 15,0 11,0 ZZW 16,0 1018,3 77 - 490
15:14 19,2 14,9 10,0 ZW 16,0 1018,3 76 - 464
15:19 19,3 15,0 14,0 ZZW 18,0 1018,0 76 - 496
15:24 19,4 15,0 11,0 WZW 16,0 1018,0 76 - 492
15:29 19,4 14,9 11,0 ZZW 19,0 1018,0 75 - 446
15:34 19,6 15,0 16,0 ZW 19,0 1018,0 75 - 445
15:39 19,6 15,0 10,0 ZW 24,0 1018,0 75 - 452
Dagelijkse Samenvatting Dinsdag 04 oktober 2022
Tijd Temp. ( °C ) Dew pt. ( °C ) Wind ( km/h ) van Windvlaag ( km/h ) Luchtdruk ( hPa ) Humid.( % ) Rainrate ( cm ) Zonneschijn ( W/m2 )
Hoog19,6 15,0 21,0 ZW ( 561/979 ) 24,0 1023,4 97 - 621
Gemiddeld11,8 10,3 5,2 ZW #58/188 8,4 1020,5 91 - 374 #92/188
Laag7,7 7,1 -   0,0 1018,0 75 -  
Dagelijkse Tabular details for Dinsdag 04 oktober 2022
Tijd Temp. ( °C ) Dew pt. ( °C ) Wind ( km/h ) van Windvlaag ( km/h ) Luchtdruk ( hPa ) Humid.( % ) Rainrate ( cm ) Zonneschijn ( W/m2 )
00:04 10,8 9,4   Kalm   1023,4 91 - -
00:09 10,7 9,3   Kalm 2,0 1023,4 91 - -
00:14 10,6 9,4 1,0 ZW 2,0 1023,4 92 - -
00:19 10,7 9,6 1,0 ZW 3,0 1023,4 93 - -
00:24 10,7 9,6 1,0 ZW 3,0 1023,4 93 - -
00:29 10,7 9,6 1,0 WZW 5,0 1023,4 93 - -
00:34 10,8 9,7 1,0 WZW 3,0 1023,4 93 - -
00:39 10,9 9,8 1,0 WZW 3,0 1023,4 93 - -
00:44 10,9 9,8   Kalm 3,0 1023,4 93 - -
00:49 10,9 9,8   Kalm 2,0 1023,4 93 - -
00:53 10,8 9,7 1,0 WZW 2,0 1023,4 93 - -
00:59 10,8 9,7   Kalm   1023,4 93 - -
01:04 10,7 9,6   Kalm 2,0 1023,4 93 - -
01:09 10,6 9,5 1,0 WZW 2,0 1023,4 93 - -
01:14 10,4 9,3 1,0 WZW 2,0 1023,4 93 - -
01:19 10,3 9,2   Kalm 2,0 1023,4 93 - -
01:24 10,3 9,4   Kalm   1023,0 94 - -
01:29 10,3 9,4   Kalm   1023,0 94 - -
01:34 10,3 9,4 1,0 WZW 3,0 1023,0 94 - -
01:39 10,2 9,3 3,0 ZW 3,0 1022,7 94 - -
01:44 10,1 9,2   Kalm 2,0 1022,7 94 - -
01:49 9,9 9,0 1,0 ZZW 2,0 1022,7 94 - -
01:54 9,9 9,0 1,0 ZZW 2,0 1022,7 94 - -
01:59 9,9 9,0 1,0 ZZW 2,0 1022,7 94 - -
02:04 9,8 8,9 1,0 ZZW 2,0 1022,7 94 - -
02:09 9,8 8,9   Kalm 2,0 1022,7 94 - -
02:14 9,7 8,8   Kalm 2,0 1022,7 94 - -
02:19 9,6 8,7   Kalm 2,0 1022,7 94 - -
02:24 9,6 8,7   Kalm   1022,7 94 - -
02:29 9,6 8,8   Kalm 2,0 1022,7 95 - -
02:34 9,6 8,8   Kalm 2,0 1022,7 95 - -
02:38 9,7 8,9 1,0 ZZW 2,0 1022,7 95 - -
02:44 9,8 9,0 1,0 ZZW 2,0 1022,7 95 - -
02:49 9,8 9,0   Kalm 2,0 1022,7 95 - -
02:54 9,8 9,0 1,0 ZZW 2,0 1022,4 95 - -
02:59 9,8 9,0 1,0 ZZW 2,0 1022,4 95 - -
03:04 9,6 8,8 1,0 ZZW 2,0 1022,4 95 - -
03:09 9,4 8,5 1,0 ZZW 2,0 1022,4 94 - -
03:14 9,3 8,4 1,0 ZZW 3,0 1022,0 95 - -
03:19 9,2 8,3   Kalm 3,0 1022,0 95 - -
03:24 9,1 8,3 1,0 ZZW 3,0 1022,0 95 - -
03:29 9,1 8,3 1,0 ZZW 3,0 1022,0 95 - -
03:34 9,1 8,3   Kalm 2,0 1022,0 95 - -
03:39 9,1 8,3   Kalm 2,0 1022,0 95 - -
03:44 9,1 8,3 1,0 ZZW 3,0 1022,0 95 - -
03:49 9,2 8,6 1,0 ZZW 3,0 1022,0 96 - -
03:54 9,3 8,7 1,0 ZZW 2,0 1021,7 96 - -
03:59 9,3 8,5 1,0 ZZW 3,0 1021,7 95 - -
04:04 9,3 8,5 1,0 ZZW 3,0 1021,7 95 - -
04:09 9,3 8,5 3,0 Zuiden 5,0 1021,7 95 - -
04:14 9,3 8,5 1,0 Zuiden 3,0 1021,7 95 - -
04:19 9,3 8,5   Kalm 2,0 1021,3 95 - -
04:24 9,2 8,4 1,0 Zuiden 3,0 1021,3 95 - -
04:29 9,2 8,4 1,0 Zuiden 3,0 1021,3 95 - -
04:34 9,1 8,3 1,0 Zuiden 3,0 1021,0 95 - -
04:39 9,0 8,2 1,0 Zuiden 3,0 1021,0 95 - -
04:44 8,9 8,1 3,0 Zuiden 5,0 1020,7 95 - -
04:49 8,9 8,1   Kalm 2,0 1021,0 95 - -
04:54 8,9 8,3 1,0 Zuiden 2,0 1020,7 96 - -
04:59 8,9 8,3   Kalm 2,0 1020,7 96 - -
05:04 8,8 8,2 1,0 Zuiden 3,0 1020,3 96 - -
05:09 8,8 8,2 1,0 Zuiden 3,0 1020,3 96 - -
05:14 8,9 8,3 1,0 Zuiden 3,0 1020,3 96 - -
05:19 8,9 8,3 1,0 Zuiden 2,0 1020,3 96 - -
05:24 9,0 8,4 5,0 Zuiden 5,0 1020,3 96 - -
05:29 9,0 8,4 3,0 ZZW 5,0 1020,3 96 - -
05:34 8,9 8,3   Kalm 3,0 1020,3 96 - -
05:39 8,9 8,3   Kalm 2,0 1020,3 96 - -
05:44 8,9 8,3 1,0 ZZW 2,0 1020,3 96 - -
05:49 8,9 8,3   Kalm 2,0 1020,0 96 - -
05:54 8,8 8,2 1,0 ZZW 2,0 1020,0 96 - -
05:59 8,8 8,1 1,0 ZZW 2,0 1020,0 96 - -
06:04 8,7 8,1 3,0 ZZW 3,0 1020,0 96 - -
06:09 8,6 8,0 1,0 ZZW 3,0 1020,0 96 - -
06:14 8,6 8,0   Kalm 3,0 1020,0 96 - -
06:19 8,7 8,1 5,0 ZW 5,0 1020,0 96 - -
06:24 8,8 8,2 3,0 ZW 5,0 1020,0 96 - -
06:29 8,8 8,2 3,0 ZW 3,0 1020,0 96 - -
06:34 8,9 8,3 5,0 WZW 5,0 1020,0 96 - -
06:39 8,9 8,3 3,0 WZW 5,0 1020,0 96 - -
06:44 8,9 8,3 1,0 WZW 5,0 1020,0 96 - -
06:48 8,9 8,3   Kalm 3,0 1020,0 96 - -
06:54 8,9 8,3   Kalm 2,0 1020,0 96 - -
06:59 8,8 8,2 1,0 WZW 2,0 1020,3 96 - -
07:04 8,7 8,1 1,0 WZW 2,0 1020,3 96 - -
07:09 8,7 8,1   Kalm 2,0 1020,3 96 - -
07:14 8,6 8,0   Kalm 2,0 1020,3 96 - -
07:19 8,4 7,8   Kalm 2,0 1020,0 96 - -
07:24 8,3 7,7   Kalm 2,0 1020,0 96 - -
07:29 8,2 7,6   Kalm 2,0 1020,0 96 - -
07:34 8,1 7,5   Kalm 2,0 1020,0 96 - -
07:39 8,1 7,5   Kalm 2,0 1020,0 96 - -
07:44 8,0 7,4   Kalm   1020,0 96 - -
07:49 7,9 7,3   Kalm 2,0 1020,0 96 - -
07:54 7,8 7,2 1,0 WZW 2,0 1020,0 96 - -
07:59 7,8 7,2   Kalm   1020,3 96 - -
08:04 7,8 7,2 1,0 WZW 2,0 1020,0 96 - 5
08:09 7,8 7,2 3,0 WZW 3,0 1020,0 96 - 7
08:14 7,8 7,2 1,0 WZW 3,0 1020,0 96 - 12
08:19 7,7 7,1   Kalm 2,0 1020,0 96 - 12
08:24 7,8 7,2 1,0 WZW 3,0 1020,0 96 - 14
08:29 7,9 7,4   Kalm 3,0 1020,0 97 - 30
08:34 7,9 7,3 1,0 ZW 5,0 1020,0 96 - 51
08:39 8,1 7,7 3,0 ZZW 5,0 1020,0 97 - 65
08:44 8,4 8,0 5,0 ZZW 5,0 1020,0 97 - 84
08:49 8,8 8,3 8,0 ZW 10,0 1020,0 97 - 105
08:54 9,2 8,7 6,0 ZW 11,0 1020,0 97 - 125
08:59 9,5 9,0 6,0 ZW 11,0 1019,6 97 - 149
09:04 9,7 9,2 5,0 ZZW 11,0 1019,6 97 - 169
09:09 9,9 9,4 5,0 ZW 8,0 1019,6 97 - 192
09:14 10,2 9,7 10,0 ZW 10,0 1020,0 97 - 214
09:19 10,4 9,9 6,0 ZZW 8,0 1019,6 97 - 234
09:24 10,5 10,0 6,0 ZZW 10,0 1019,6 97 - 158
09:29 10,6 10,1 5,0 ZW 10,0 1019,6 97 - 151
09:34 10,8 10,3 8,0 ZW 10,0 1019,6 97 - 267
09:39 10,9 10,4 8,0 WZW 10,0 1019,6 97 - 230
09:44 11,1 10,6 6,0 ZW 11,0 1019,6 97 - 183
09:49 11,3 10,8 10,0 ZZW 11,0 1019,6 97 - 306
09:54 11,6 11,1 5,0 ZZW 10,0 1019,6 97 - 330
09:59 11,7 11,2 5,0 WZW 13,0 1019,6 97 - 288
10:04 11,8 11,3 10,0 ZW 10,0 1019,6 97 - 304
10:09 12,1 11,5 5,0 ZW 11,0 1019,6 96 - 315
10:14 12,2 11,6 6,0 ZW 16,0 1019,6 96 - 281
10:19 12,3 11,5 8,0 ZW 15,0 1019,6 95 - 332
10:24 12,4 11,6 10,0 ZW 15,0 1019,6 95 - 357
10:29 12,6 11,7 10,0 ZW 16,0 1019,6 95 - 255
10:34 12,6 11,7 10,0 ZW 13,0 1019,6 94 - 274
10:39 12,7 11,6 8,0 ZZW 15,0 1019,6 93 - 355
10:44 12,8 11,5 11,0 ZZW 15,0 1019,6 92 - 364
10:49 12,9 11,6 14,0 WZW 19,0 1019,6 92 - 388
10:54 13,1 11,6 6,0 ZW 21,0 1019,6 91 - 415
10:59 13,5 12,0 13,0 ZW 16,0 1019,6 91 - 457
11:04 13,6 12,0 14,0 ZW 18,0 1019,6 90 - 466
11:09 13,8 12,0 11,0 ZW 18,0 1019,6 89 - 461
11:14 13,9 11,9 8,0 ZW 16,0 1019,6 88 - 445
11:19 14,1 12,1 14,0 ZW 18,0 1019,3 88 - 454
11:24 14,2 12,1 14,0 ZW 23,0 1019,6 87 - 410
11:29 14,3 12,2 11,0 WZW 16,0 1019,3 87 - 380
11:34 14,3 12,2 11,0 WZW 18,0 1019,3 87 - 411
11:39 14,3 12,0 20,0 ZW 19,0 1019,3 86 - 411
11:44 14,4 12,1 13,0 ZW 16,0 1019,0 86 - 485
11:49 14,5 12,2 13,0 ZW 19,0 1019,0 86 - 413
11:54 14,5 12,2 14,0 ZZW 19,0 1019,0 86 - 251
11:59 14,4 12,1 10,0 ZW 18,0 1019,3 86 - 408
12:04 14,7 12,4 14,0 ZW 16,0 1019,3 86 - 522
12:09 15,0 12,7 14,0 ZW 18,0 1019,3 86 - 598
12:14 15,3 12,8 16,0 ZW 18,0 1019,3 85 - 621
12:19 15,4 12,9 6,0 ZW 15,0 1019,3 85 - 301
12:24 15,7 13,1 14,0 ZW 18,0 1019,3 85 - 533
12:29 15,8 13,0 8,0 WZW 18,0 1019,3 84 - 473
12:34 15,8 12,9 10,0 ZW 16,0 1019,0 83 - 422
12:39 15,8 12,9 21,0 ZW 21,0 1019,0 83 - 480
12:44 15,9 12,9 18,0 ZW 21,0 1019,0 83 - 483
12:49 16,1 13,0 11,0 ZW 18,0 1019,3 82 - 485
12:54 16,2 13,1 11,0 ZW 16,0 1019,3 82 - 534
12:59 16,6 13,3 14,0 ZZW 16,0 1019,3 81 - 538
13:04 16,7 13,2 10,0 Zuiden 18,0 1019,3 80 - 534
13:09 16,9 13,4 10,0 ZW 18,0 1019,3 80 - 534
13:14 17,2 13,7 11,0 ZW 18,0 1019,3 80 - 557
13:19 17,3 13,7 8,0 ZZW 18,0 1019,3 80 - 566
13:24 17,5 13,8 10,0 ZW 19,0 1019,0 79 - 559
13:29 17,7 14,0 13,0 ZW 13,0 1019,3 79 - 541
13:34 17,9 14,0 11,0 ZZW 16,0 1019,3 78 - 534
13:39 18,1 14,2 14,0 ZZW 19,0 1019,3 78 - 522
13:44 18,1 14,0 11,0 ZZW 15,0 1019,3 77 - 515
13:49 18,1 14,0 10,0 ZZW 16,0 1019,3 77 - 510
13:54 18,2 14,3 8,0 ZW 11,0 1019,3 78 - 506
13:59 18,5 14,6 11,0 ZW 15,0 1019,3 78 - 499
14:04 18,5 14,4 11,0 ZW 23,0 1019,3 77 - 492
14:09 18,3 14,0 11,0 ZW 16,0 1019,0 76 - 501
14:14 18,3 14,4 11,0 ZW 15,0 1019,0 78 - 504
14:19 18,6 14,5 13,0 ZW 18,0 1019,0 77 - 503
14:24 18,6 14,3 8,0 ZZW 16,0 1019,0 76 - 476
14:29 18,5 14,2 14,0 ZW 18,0 1019,0 76 - 490
14:34 18,6 14,4 13,0 ZZW 13,0 1019,0 77 - 483
14:39 18,7 14,6 6,0 ZZW 15,0 1018,6 77 - 489
14:44 18,7 14,6 13,0 ZZW 23,0 1018,6 77 - 490
14:49 18,8 14,7 13,0 WZW 19,0 1018,6 77 - 452
14:54 18,8 14,5 11,0 WZW 19,0 1018,6 76 - 461
14:59 18,9 14,6 11,0 ZZW 16,0 1018,6 76 - 473
15:04 18,9 14,8 14,0 WZW 18,0 1018,3 77 - 485
15:09 19,1 15,0 11,0 ZZW 16,0 1018,3 77 - 490
15:14 19,2 14,9 10,0 ZW 16,0 1018,3 76 - 464
15:19 19,3 15,0 14,0 ZZW 18,0 1018,0 76 - 496
15:24 19,4 15,0 11,0 WZW 16,0 1018,0 76 - 492
15:29 19,4 14,9 11,0 ZZW 19,0 1018,0 75 - 446
15:34 19,6 15,0 16,0 ZW 19,0 1018,0 75 - 445
15:39 19,6 15,0 10,0 ZW 24,0 1018,0 75 - 452

Download your copy of this data-set  here

Our weather-data as stored at Weather Underground. Script ontwikkeld door Jim McMurry. Aangepast voor de template door Leuven-Template.eu

U vindt ons ook hier:

Het Weer Aktueel

UK Metoffice

WeatherCloud

Weather Underground

Benelux Weer Netwerk

AWEKAS

Apparatuur in gebruik:

Weerstation
Davis Vantage Pro2

Weerprogramma
Meteobridge

Weercomputer
TP-Link TL-MR3020

Webleverancier
One.com

Davis Vantage Pro2

Meteobridge

TP-Link TL-MR3020

One.com